• In Uzbekistan
  • List of Countries
  • For 7 days
  • Water Temperature
  • Satellite Maps
  • Weather Map
  • Weather Widgets
  • user-avatar
    Login

    Hourly Weather San Pédro

    Today, 18 December, Monday

    Time Temperature Precipitation Wind Pressure Humidity
    00:00 +26°C° 0 mm 3 mps 750 mmHg 90%
    01:00 +26°C° 0 mm 3 mps 750 mmHg 91%
    02:00 +26°C° 0 mm 3 mps 749 mmHg 91%
    03:00 +26°C° 0 mm 3 mps 749 mmHg 91%
    04:00 +26°C° 0 mm 3 mps 749 mmHg 91%
    05:00 +26°C° 0 mm 3 mps 749 mmHg 92%
    06:00 +26°C° 0 mm 3 mps 749 mmHg 92%
    07:00 +27°C° 0 mm 3 mps 749 mmHg 88%
    08:00 +28°C° 0 mm 3 mps 750 mmHg 83%
    09:00 +29°C° 0 mm 3 mps 750 mmHg 79%
    10:00 +31°C° 0 mm 3 mps 750 mmHg 71%
    11:00 +33°C° 0 mm 3 mps 749 mmHg 64%
    12:00 +35°C° 0 mm 3 mps 749 mmHg 57%
    13:00 +35°C° 0.1 mm 4 mps 749 mmHg 58%
    14:00 +34°C° 0.1 mm 4 mps 748 mmHg 59%
    15:00 +34°C° 0.1 mm 4 mps 747 mmHg 60%
    16:00 +32°C° 0.5 mm 5 mps 747 mmHg 69%
    17:00 +30°C° 0.5 mm 5 mps 747 mmHg 79%
    18:00 +28°C° 0.5 mm 5 mps 747 mmHg 88%
    19:00 +27°C° 0.2 mm 5 mps 748 mmHg 90%
    20:00 +27°C° 0.2 mm 5 mps 749 mmHg 91%
    21:00 +26°C° 0.2 mm 5 mps 749 mmHg 93%
    22:00 +26°C° 0.1 mm 4 mps 749 mmHg 94%
    23:00 +26°C° 0.1 mm 4 mps 749 mmHg 95%

    Tomorrow, 19 December, Tuesday

    Time Temperature Precipitation Wind Pressure Humidity
    00:00 +26°C° 0.1 mm 4 mps 749 mmHg 95%
    01:00 +26°C° 0.1 mm 4 mps 749 mmHg 96%
    02:00 +26°C° 0.1 mm 4 mps 749 mmHg 96%
    03:00 +25°C° 0.1 mm 4 mps 748 mmHg 97%
    04:00 +25°C° 0.2 mm 3 mps 748 mmHg 97%
    05:00 +25°C° 0.2 mm 3 mps 749 mmHg 97%
    06:00 +25°C° 0.2 mm 3 mps 749 mmHg 98%
    07:00 +26°C° 0.1 mm 3 mps 749 mmHg 93%
    08:00 +27°C° 0.1 mm 3 mps 750 mmHg 88%
    09:00 +29°C° 0.1 mm 3 mps 750 mmHg 83%
    10:00 +29°C° 0.4 mm 3 mps 750 mmHg 79%
    11:00 +30°C° 0.4 mm 3 mps 750 mmHg 75%
    12:00 +31°C° 0.4 mm 3 mps 749 mmHg 71%
    13:00 +31°C° 0.6 mm 3 mps 749 mmHg 73%
    14:00 +32°C° 0.6 mm 4 mps 748 mmHg 75%
    15:00 +30°C° 0.6 mm 4 mps 747 mmHg 76%
    16:00 +29°C° 1.1 mm 4 mps 747 mmHg 81%
    17:00 +28°C° 1.1 mm 4 mps 747 mmHg 85%
    18:00 +27°C° 1.1 mm 4 mps 748 mmHg 89%
    19:00 +27°C° 0.8 mm 4 mps 748 mmHg 91%
    20:00 +26°C° 0.8 mm 4 mps 749 mmHg 92%
    21:00 +26°C° 0.8 mm 4 mps 749 mmHg 94%
    22:00 +25°C° 0 mm 3 mps 749 mmHg 95%
    23:00 +25°C° 0 mm 3 mps 749 mmHg 95%

    Day after tomorrow, 20 December, Wednesday

    Time Temperature Precipitation Wind Pressure Humidity
    00:00 +25°C° 0 mm 3 mps 749 mmHg 96%
    01:00 +25°C° 0 mm 3 mps 749 mmHg 96%
    02:00 +25°C° 0 mm 3 mps 748 mmHg 97%
    03:00 +25°C° 0 mm 3 mps 747 mmHg 97%
    04:00 +24°C° 0 mm 3 mps 748 mmHg 97%
    05:00 +24°C° 0 mm 3 mps 748 mmHg 97%
    06:00 +24°C° 0 mm 2 mps 748 mmHg 98%
    07:00 +26°C° 0 mm 2 mps 748 mmHg 93%
    08:00 +27°C° 0 mm 2 mps 749 mmHg 87%
    09:00 +28°C° 0 mm 2 mps 750 mmHg 82%
    10:00 +29°C° 0.1 mm 2 mps 750 mmHg 76%
    11:00 +31°C° 0.1 mm 2 mps 749 mmHg 71%
    12:00 +32°C° 0.1 mm 2 mps 749 mmHg 65%
    13:00 +33°C° 0.2 mm 3 mps 748 mmHg 66%
    14:00 +33°C° 0.2 mm 3 mps 748 mmHg 67%
    15:00 +33°C° 0.2 mm 3 mps 747 mmHg 68%
    16:00 +30°C° 0.5 mm 3 mps 747 mmHg 75%
    17:00 +29°C° 0.5 mm 3 mps 747 mmHg 82%
    18:00 +28°C° 0.5 mm 3 mps 747 mmHg 89%
    19:00 +27°C° 0.4 mm 3 mps 748 mmHg 91%
    20:00 +27°C° 0.4 mm 3 mps 749 mmHg 93%
    21:00 +26°C° 0.4 mm 3 mps 749 mmHg 94%
    22:00 +26°C° 0.4 mm 3 mps 749 mmHg 95%
    23:00 +26°C° 0.4 mm 3 mps 749 mmHg 95%

    21 December, Thursday

    Time Temperature Precipitation Wind Pressure Humidity
    00:00 +25°C° 0.4 mm 3 mps 749 mmHg 96%
    01:00 +25°C° 0.1 mm 3 mps 749 mmHg 97%
    02:00 +25°C° 0.1 mm 3 mps 748 mmHg 97%
    03:00 +25°C° 0.1 mm 3 mps 748 mmHg 97%
    04:00 +24°C° 0.3 mm 3 mps 748 mmHg 98%
    05:00 +24°C° 0.3 mm 3 mps 748 mmHg 98%
    06:00 +24°C° 0.3 mm 3 mps 748 mmHg 98%
    07:00 +26°C° 0 mm 2 mps 749 mmHg 93%
    08:00 +27°C° 0 mm 2 mps 749 mmHg 88%
    09:00 +28°C° 0 mm 2 mps 750 mmHg 83%
    10:00 +29°C° 0.2 mm 2 mps 750 mmHg 79%
    11:00 +30°C° 0.2 mm 3 mps 749 mmHg 74%
    12:00 +31°C° 0.2 mm 3 mps 749 mmHg 70%
    13:00 +31°C° 0.5 mm 3 mps 749 mmHg 72%
    14:00 +31°C° 0.5 mm 3 mps 748 mmHg 75%
    15:00 +30°C° 0.5 mm 4 mps 748 mmHg 78%
    16:00 +29°C° 0.5 mm 3 mps 748 mmHg 83%
    17:00 +28°C° 0.5 mm 3 mps 748 mmHg 87%
    18:00 +27°C° 0.5 mm 3 mps 749 mmHg 91%
    19:00 +27°C° 1.2 mm 2 mps 749 mmHg 92%
    20:00 +26°C° 1.2 mm 2 mps 750 mmHg 93%
    21:00 +26°C° 1.2 mm 2 mps 750 mmHg 93%
    22:00 +25°C° 0.3 mm 2 mps 750 mmHg 94%
    23:00 +25°C° 0.3 mm 2 mps 750 mmHg 94%

    22 December, Friday

    Time Temperature Precipitation Wind Pressure Humidity
    00:00 +25°C° 0.3 mm 2 mps 750 mmHg 95%
    01:00 +25°C° 0 mm 2 mps 749 mmHg 95%
    02:00 +25°C° 0 mm 2 mps 749 mmHg 96%
    03:00 +25°C° 0 mm 3 mps 748 mmHg 96%
    04:00 +24°C° 0 mm 2 mps 748 mmHg 97%
    05:00 +24°C° 0 mm 2 mps 749 mmHg 97%
    06:00 +24°C° 0 mm 2 mps 749 mmHg 97%
    07:00 +25°C° 0 mm 2 mps 749 mmHg 92%
    08:00 +27°C° 0 mm 1 mps 750 mmHg 87%
    09:00 +28°C° 0 mm 1 mps 751 mmHg 82%
    10:00 +30°C° 0.8 mm 1 mps 750 mmHg 76%
    11:00 +31°C° 0.8 mm 1 mps 750 mmHg 71%
    12:00 +31°C° 0.8 mm 0 mps 749 mmHg 65%
    13:00 +32°C° 0.4 mm 1 mps 749 mmHg 67%
    14:00 +32°C° 0.4 mm 1 mps 748 mmHg 68%
    15:00 +31°C° 0.4 mm 2 mps 748 mmHg 70%
    16:00 +30°C° 0.5 mm 2 mps 748 mmHg 76%
    17:00 +29°C° 0.5 mm 2 mps 748 mmHg 83%
    18:00 +27°C° 0.5 mm 2 mps 748 mmHg 89%
    19:00 +27°C° 0 mm 2 mps 749 mmHg 91%
    20:00 +26°C° 0 mm 2 mps 749 mmHg 92%
    21:00 +26°C° 0 mm 2 mps 750 mmHg 94%
    22:00 +25°C° 0 mm 2 mps 749 mmHg 95%
    23:00 +25°C° 0 mm 2 mps 749 mmHg 95%

    23 December, Saturday

    Time Temperature Precipitation Wind Pressure Humidity
    00:00 +25°C° 0 mm 2 mps 749 mmHg 96%
    01:00 +25°C° 0.7 mm 2 mps 749 mmHg 96%
    02:00 +25°C° 0.7 mm 2 mps 748 mmHg 96%
    03:00 +24°C° 0.7 mm 2 mps 748 mmHg 96%
    04:00 +24°C° 0.4 mm 2 mps 748 mmHg 97%
    05:00 +24°C° 0.4 mm 2 mps 748 mmHg 97%
    06:00 +24°C° 0.4 mm 2 mps 749 mmHg 98%
    07:00 +25°C° 0.5 mm 2 mps 749 mmHg 94%
    08:00 +26°C° 0.5 mm 2 mps 749 mmHg 90%
    09:00 +27°C° 0.5 mm 2 mps 750 mmHg 86%
    10:00 +29°C° 0.1 mm 2 mps 750 mmHg 74%
    11:00 +30°C° 0.1 mm 2 mps 749 mmHg 62%
    12:00 +32°C° 0.1 mm 1 mps 749 mmHg 50%
    13:00 +34°C° 0 mm 2 mps 748 mmHg 46%
    14:00 +35°C° 0 mm 2 mps 748 mmHg 41%
    15:00 +35°C° 0 mm 2 mps 747 mmHg 37%
    16:00 +32°C° 0 mm 2 mps 747 mmHg 46%
    17:00 +31°C° 0 mm 3 mps 747 mmHg 55%
    18:00 +29°C° 0 mm 3 mps 748 mmHg 64%
    19:00 +28°C° 0 mm 3 mps 748 mmHg 72%
    20:00 +27°C° 0 mm 3 mps 749 mmHg 81%
    21:00 +26°C° 0 mm 2 mps 749 mmHg 89%
    22:00 +25°C° 0 mm 2 mps 749 mmHg 91%
    23:00 +25°C° 0 mm 2 mps 749 mmHg 92%
    Show more

    XHprof extension not loaded